Regional Weather Roundup
Issued by NWS

Home | Current Version | Previous Version | Text Only | Print | Product List | Glossary Off
Versions: 1 2 3 4 5 6 7 8 9 10 11 12 13 14 15 16 17 18 19 20 21 22 23 24 25 26 27 28 29 30 31 32 33 34 35 36 37 38 39 40 41 42 43 44 45 46 47 48 49 50

000
ASUS43 KMKX 220911
RWRWI

WISCONSIN REGIONAL WEATHER ROUNDUP
NATIONAL WEATHER SERVICE MILWAUKEE/SULLIVAN WI
400 AM CDT MON SEP 22 2014

NOTE: "FAIR" INDICATES FEW OR NO CLOUDS BELOW 12,000 FEET WITH NO
SIGNIFICANT WEATHER AND/OR OBSTRUCTIONS TO VISIBILITY.

WIZ001-002-006>008-014>016-023>028-221000-
NORTHWEST WISCONSIN

CITY           SKY/WX    TMP DP  RH WIND       PRES   REMARKS
SUPERIOR ARPT  CLEAR     44  44  99 SW7       30.18R
ASHLAND        CLOUDY    47  45  93 SW6       30.17S
HAYWARD        CLEAR     38  37  97 CALM      30.20S
SIREN          CLEAR     42  41  97 CALM      30.21S
RICE LAKE      FOG       42  41  97 CALM      30.22R VSB 1
LADYSMITH      CLEAR     39  38  97 CALM      30.21R
EAU CLAIRE     CLEAR     45  42  89 W3        30.21R
MENOMONIE      SUNNY     46  45  95 CALM      30.22R
NEW RICHMOND     N/A     43  43 100 CALM      30.22S FOG
OSCEOLA        MOCLDY    42  42 100 CALM      30.25R
$$

WIZ003>005-009-010-017-018-221000-
NORTH CENTRAL WISCONSIN

CITY           SKY/WX    TMP DP  RH WIND       PRES   REMARKS
WOODRUFF       CLEAR     37  35  93 CALM      30.17R
RHINELANDER    CLEAR     39  38  96 W7        30.18R WCI  34
EAGLE RIVER    PTCLDY    32  32 100 CALM      30.16R FOG
LAND O LAKES   CLEAR     32  32 100 CALM      30.16R
PHILLIPS       CLEAR     36  36 100 CALM      30.18S
TOMAHAWK       CLEAR     32  32  99 CALM      30.19R
MEDFORD        CLEAR     40  38  95 CALM      30.20R
MERRILL        CLEAR     35  34  99 CALM      30.19S
$$

WIZ029-030-035-036-043>047-221000-
CENTRAL WISCONSIN

CITY           SKY/WX    TMP DP  RH WIND       PRES   REMARKS
WAUSAU         CLEAR     42  39  89 NW6       30.19R
MOSINEE        CLEAR     39  39 100 W8        30.20R WCI  34
MARSHFIELD     CLEAR     43  40  89 W6        30.20S
STEVENS POINT  CLEAR     34  33  95 CALM      30.21R
WAUPACA        CLEAR     40  39  94 CALM      30.19S
WAUTOMA        CLEAR     37  36  96 CALM      30.21R
WISC RAPIDS    CLEAR     40  38  93 CALM      30.22R
CAMP DOUGLAS   CLEAR     36  36 100 CALM      30.21S FOG
$$

WIZ011>013-019>022-031-037>040-048>050-221000-
NORTHEAST WISCONSIN

CITY           SKY/WX    TMP DP  RH WIND       PRES   REMARKS
ANTIGO         CLEAR     35  35  99 CALM      30.18R
STURGEON BAY   CLEAR     41  36  81 CALM      30.17R
GREEN BAY      CLEAR     39  38  96 CALM      30.18R
MANITOWOC      CLEAR     39  38  96 CALM      30.19R
APPLETON       CLEAR     39  37  93 W8        30.19R WCI  34
CLINTONVILLE   CLEAR     37  37 100 CALM      30.18S
OSHKOSH        CLEAR     42  39  89 W5        30.18R
$$

WIZ032>034-041-042-053>061-221000-
SOUTHWEST WISCONSIN

CITY           SKY/WX    TMP DP  RH WIND       PRES   REMARKS
LA CROSSE      PTCLDY    48  46  93 SE6       30.23R FOG
SPARTA           N/A     35  35 100 CALM      30.24R FOG
VIROQUA        FAIR      42  42 100 CALM      30.23R
BOSCOBEL       FOG       46  45  96 CALM      30.24S VSB 1/4
PRAIRIE DU CHI CLOUDY    45  44  95 CALM      30.24R FOG
PLATTEVILLE    FAIR      42  41  97 N3        30.24R
$$

WIZ056-057-062-063-064-067-068-221000-
SOUTH CENTRAL WISCONSIN

CITY           SKY/WX    TMP DP  RH WIND       PRES   REMARKS
BARABOO/DELLS  CLEAR     38  37  94 CALM      30.22R
LONE ROCK      MOCLDY    44  40  85 CALM      30.24R FOG
WATERTOWN      CLEAR     37  37 100 CALM      30.20R
MADISON        CLEAR     41  38  89 CALM      30.21R
MIDDLETON      FAIR      40  40  99 CALM      30.22R
MONROE         CLEAR     45  41  87 N6        30.22R
JANESVILLE     CLEAR     41  39  93 NW3       30.21R FOG
$$

WIZ051-052-058>065-066-070>072-221000-
SOUTHEAST WISCONSIN

CITY           SKY/WX    TMP DP  RH WIND       PRES   REMARKS
MILWAUKEE      CLEAR     44  37  76 NW3       30.19R
WAUKESHA       CLEAR     36  36 100 CALM      30.20S
MILWAUKEE/TIMM CLEAR     39  36  87 CALM      30.21R
RACINE         CLEAR     44  40  85 NW7       30.21R
BURLINGTON     CLEAR     36  36 100 CALM      30.20R
KENOSHA        CLEAR     43  40  89 NW5       30.19S
FOND DU LAC    CLEAR     39  37  92 CALM      30.19R
SHEBOYGAN      CLEAR     37  35  92 CALM      30.18R
WEST BEND      CLEAR     37  36  93 CALM      30.19R
JUNEAU         CLEAR     38  37  97 S3        30.21R
$$

LSZ147-162-221000-
LAKE SUPERIOR

STATION/POSITION TIME  TEMP    WIND        PRES    WAVE
                       AIR SEA DIR/SP/G            HT/PER
                 (UTC) (F)     (DEG/KT/KT) (MB)    (FT/S)
W MID LAKE BUOY  0850   49 46  250/  8/ 10 1020.1S   1/ 5
DEVILS ISLAND    0900   52     250/ 12/ 14 1021.2R
PORT WING        0800   51     190/  5/  7 1021.3F
SAXON HARBOR     0800   47     190/  6/  9 1021.0F
$$

LMZ867-665-643>646-221000-
LAKE MICHIGAN

STATION/POSITION TIME  TEMP    WIND        PRES    WAVE
                       AIR SEA DIR/SP/G            HT/PER
                 (UTC) (F)     (DEG/KT/KT) (MB)    (FT/S)
N MID LAKE BUOY  0850   48 57  350/ 12/ 16 1020.6R   2/ 4
NORTHPORT PIER   0800   49     330/  9/ 13 1020.3S
KEWAUNEE LAKESHO 0800   41     300/  4/  4 1020.4R
SHEBOYGAN LAKESH 0900   44 51  300/  7/  8 1022.7R
PORT WASHINGTON  0800   44     290/  4/  6 1022.7R
ATWATER BUOY     0900   50     340/  8/ 10 1023.2R
MILWAUKEE LAKESH 0800   47     320/  5/  7   N/A
S MID LAKE BUOY  0850   53 61  350/ 14/ 17 1021.6R   7/ 8
KENOSHA   LAKESH 0900   47     320/ 11/ 13 1022.0S
$$

TC  - TEMPERATURE IN CELSIUS
VSB - VISIBILITY IN STATUTE MILES
WCI - WIND CHILL INDEX
HX  - HEAT INDEX




USA.gov is the U.S. government's official web portal to all federal, state and local government web resources and services.